Weather History for KCHO - December, 2012

Change the Weather History Date:

Saturday, December 8, 2012

  Actual Average Record
Temperature  
Mean Temperature 55 °F 39 °F  
Max Temperature 64 °F 49 °F 83 °F (1978)
Min Temperature 46 °F 30 °F 18 °F (1954)
Degree Days  
Heating Degree Days 10 26  
Month to date heating degree days 124 196  
Since 1 July heating degree days 1033 1087  
Cooling Degree Days 0 0  
Month to date cooling degree days 0 0  
Year to date cooling degree days 1604 1035  
Growing Degree Days 4 (Base 50)    
Moisture  
Dew Point 47 °F    
Average Humidity 80    
Maximum Humidity 100    
Minimum Humidity 60    
Precipitation  
Precipitation 0.00 in 0.12 in 0.63 in (2013)
Month to date precipitation T 0.97  
Year to date precipitation 33.73 40.53  
Sea Level Pressure  
Sea Level Pressure 29.93 in    
Wind  
Wind Speed 6 mph (South)    
Max Wind Speed 14 mph    
Max Gust Speed 17 mph    
Visibility 6 miles    
Events Fog    
T = Trace of Precipitation, MM = Missing Value Source: NWS Daily Summary

Daily Weather History Graph

Daily Weather History Graph

Search for Another Location

Airport or City:

Trip Planner

Search our weather history database for the weather conditions in past years. The results will help you decide how hot, cold, wet, or windy it might be!

Date:

Astronomy

Dec. 08, 2012 Rise Set
Actual Time 7:18 AM EST 4:53 PM EST
Civil Twilight 6:48 AM EST 5:23 PM EST
Nautical Twilight 6:15 AM EST 5:56 PM EST
Astronomical Twilight 5:43 AM EST 6:28 PM EST
Moon 1:44 AM EST (12/8) 1:19 PM EST (12/8)
Length of Visible Light 10h 34m
Length of Day
9h 35m
Waning Crescent, 28% of the Moon is Illuminated
Dec 8
Waning Crescent
Dec 13
New
Dec 20
First Quarter
Dec 28
Full
Jan 4
Last Quarter

Hourly Weather History & Observations

Time (EST) Temp. Windchill Dew Point Humidity Pressure Visibility Wind Dir Wind Speed Gust Speed Precip Events Conditions
12:11 AM 46.4 °F 45.2 °F 44.6 °F 93% 29.96 in 7.0 mi South 3.5 mph - N/A   Overcast
12:53 AM 46.9 °F - 44.1 °F 90% 29.95 in 7.0 mi Calm Calm - N/A   Overcast
1:53 AM 46.9 °F - 45.0 °F 93% 29.93 in 7.0 mi South 5.8 mph - N/A   Overcast
2:53 AM 46.9 °F - 45.0 °F 93% 29.92 in 6.0 mi Calm Calm - N/A   Overcast
3:49 AM 46.4 °F 44.3 °F 44.6 °F 93% 29.91 in 5.0 mi South 4.6 mph - N/A   Overcast
3:53 AM 46.9 °F - 45.0 °F 93% 29.91 in 5.0 mi SSW 4.6 mph - N/A   Overcast
4:21 AM 46.4 °F 43.5 °F 46.4 °F 100% 29.90 in 2.5 mi South 5.8 mph - N/A   Overcast
4:33 AM 46.4 °F 42.9 °F 46.4 °F 100% 29.91 in 0.8 mi SSW 6.9 mph - N/A   Overcast
4:53 AM 46.9 °F - 46.0 °F 97% 29.90 in 0.5 mi SSW 6.9 mph - N/A Fog Fog
5:53 AM 46.0 °F 42.5 °F 45.0 °F 96% 29.91 in 0.2 mi SSW 6.9 mph - N/A Fog Fog
6:53 AM 46.0 °F 43.1 °F 45.0 °F 96% 29.92 in 0.2 mi South 5.8 mph - N/A Fog Fog
7:53 AM 46.0 °F 41.9 °F 45.0 °F 96% 29.94 in 0.2 mi SSW 8.1 mph - N/A Fog Fog
8:53 AM 46.9 °F - 46.9 °F 100% 29.95 in 0.5 mi Variable 4.6 mph - N/A Fog Fog
9:07 AM 48.2 °F - 46.4 °F 93% 29.95 in 1.8 mi South 5.8 mph - N/A   Overcast
9:51 AM 48.2 °F - 46.4 °F 93% 29.96 in 2.0 mi South 4.6 mph - N/A   Overcast
9:53 AM 48.9 °F - 46.9 °F 93% 29.96 in 2.0 mi South 5.8 mph - N/A   Overcast
10:15 AM 50.0 °F - 46.4 °F 87% 29.95 in 2.0 mi SSE 6.9 mph - N/A   Scattered Clouds
10:50 AM 53.6 °F - 46.4 °F 77% 29.94 in 8.0 mi South 4.6 mph - N/A   Partly Cloudy
10:53 AM 54.0 °F - 48.0 °F 80% 29.94 in 8.0 mi South 5.8 mph - N/A   Clear
11:53 AM 57.0 °F - 48.0 °F 72% 29.92 in 10.0 mi South 5.8 mph - N/A   Clear
12:53 PM 59.0 °F - 48.9 °F 69% 29.90 in 10.0 mi South 6.9 mph - N/A   Clear
1:53 PM 62.1 °F - 48.9 °F 62% 29.88 in 10.0 mi SSE 6.9 mph - N/A   Clear
2:53 PM 63.0 °F - 48.9 °F 60% 29.89 in 10.0 mi South 12.7 mph - N/A   Clear
3:53 PM 62.1 °F - 50.0 °F 65% 29.89 in 10.0 mi South 10.4 mph - N/A   Clear
4:53 PM 57.9 °F - 50.0 °F 75% 29.91 in 10.0 mi South 8.1 mph - N/A   Clear
5:53 PM 55.9 °F - 48.9 °F 77% 29.93 in 10.0 mi SSW 8.1 mph - N/A   Clear
6:53 PM 55.9 °F - 48.9 °F 77% 29.94 in 10.0 mi South 6.9 mph - N/A   Mostly Cloudy
7:53 PM 54.0 °F - 48.9 °F 83% 29.96 in 10.0 mi South 8.1 mph - N/A   Scattered Clouds
8:53 PM 55.0 °F - 50.0 °F 83% 29.96 in 10.0 mi Calm Calm - N/A   Clear
9:53 PM 55.0 °F - 51.1 °F 86% 29.98 in 10.0 mi Calm Calm - N/A   Clear
10:53 PM 52.0 °F - 50.0 °F 93% 29.99 in 8.0 mi South 5.8 mph - N/A   Scattered Clouds
11:53 PM 52.0 °F - 50.0 °F 93% 30.00 in 10.0 mi South 3.5 mph - N/A   Overcast